| time (UTC) | temp F | wind direction | speed MPH | gust MPH | rain 1hr in | rain 24hr in | rain mn in | humidity % | barometer mb |
| 20260505153101 | 62 | 135 | 6.0 | 12.0 | 0.00 | 0.00 | 0.00 | 39 | 1008.0 |
| 20260505151558 | 60 | 180 | 7.0 | 11.0 | 0.00 | 0.00 | 0.00 | 41 | 1008.0 |
| 20260505130112 | 54 | 124 | 6.0 | 10.0 | 0.00 | 0.00 | 0.00 | 49 | 1007.2 |
| 20260505124602 | 54 | 164 | 5.0 | 11.0 | 0.00 | 0.00 | 0.00 | 49 | 1007.1 |
| 20260505123058 | 54 | 136 | 5.0 | 9.0 | 0.00 | 0.00 | 0.00 | 50 | 1007.1 |
| 20260505121557 | 54 | 155 | 5.0 | 10.0 | 0.00 | 0.00 | 0.00 | 49 | 1007.0 |
| 20260505120116 | 54 | 167 | 4.0 | 10.0 | 0.00 | 0.00 | 0.00 | 49 | 1006.9 |
| 20260505114601 | 54 | 148 | 4.0 | 10.0 | 0.00 | 0.00 | 0.00 | 49 | 1007.0 |
| 20260505113105 | 55 | 145 | 6.0 | 10.0 | 0.00 | 0.00 | 0.00 | 48 | 1007.0 |
| 20260505111557 | 55 | 159 | 5.0 | 9.0 | 0.00 | 0.00 | 0.00 | 47 | 1007.0 |
| 20260505110117 | 55 | 161 | 4.0 | 9.0 | 0.00 | 0.00 | 0.00 | 47 | 1006.8 |
| 20260505101602 | 56 | 138 | 6.0 | 10.0 | 0.00 | 0.00 | 0.00 | 45 | 1006.9 |
| 20260505100058 | 56 | 162 | 3.0 | 10.0 | 0.00 | 0.00 | 0.00 | 45 | 1006.8 |
| 20260505094556 | 56 | 151 | 4.0 | 9.0 | 0.00 | 0.00 | 0.00 | 44 | 1006.7 |
| 20260505093107 | 56 | 149 | 4.0 | 10.0 | 0.00 | 0.00 | 0.00 | 44 | 1006.8 |
| 20260505091556 | 57 | 198 | 3.0 | 10.0 | 0.00 | 0.00 | 0.00 | 44 | 1006.8 |
| 20260505090057 | 57 | 208 | 6.0 | 13.0 | 0.00 | 0.00 | 0.00 | 44 | 1006.7 |
| 20260505084556 | 57 | 147 | 5.0 | 14.0 | 0.00 | 0.00 | 0.00 | 43 | 1006.8 |
| 20260505083058 | 58 | 188 | 4.0 | 10.0 | 0.00 | 0.00 | 0.00 | 42 | 1007.1 |
| 20260505081608 | 58 | 150 | 6.0 | 11.0 | 0.00 | 0.00 | 0.00 | 42 | 1007.2 |
| 20260505080109 | 58 | 222 | 6.0 | 9.0 | 0.00 | 0.00 | 0.00 | 41 | 1007.2 |
| 20260505074600 | 59 | 186 | 5.0 | 13.0 | 0.00 | 0.00 | 0.00 | 41 | 1007.1 |
| 20260505073059 | 59 | 198 | 4.0 | 14.0 | 0.00 | 0.00 | 0.00 | 40 | 1007.1 |
| 20260505071621 | 59 | 171 | 5.0 | 9.0 | 0.00 | 0.00 | 0.00 | 39 | 1007.0 |
| 20260505070112 | 60 | 151 | 3.0 | 7.0 | 0.00 | 0.00 | 0.00 | 38 | 1007.1 |
| 20260505064609 | 60 | 155 | 3.0 | 7.0 | 0.00 | 0.00 | 0.00 | 38 | 1006.9 |
| 20260505063059 | 60 | 141 | 3.0 | 7.0 | 0.00 | 0.00 | 0.00 | 37 | 1006.9 |
| 20260505061602 | 61 | 146 | 3.0 | 8.0 | 0.00 | 0.00 | 0.00 | 35 | 1006.8 |
| 20260505060100 | 61 | 219 | 5.0 | 10.0 | 0.00 | 0.00 | 0.00 | 35 | 1006.6 |
| 20260505054600 | 62 | 198 | 5.0 | 8.0 | 0.00 | 0.00 | 0.00 | 34 | 1006.6 |
| 20260505053107 | 63 | 157 | 3.0 | 7.0 | 0.00 | 0.00 | 0.00 | 33 | 1006.6 |
| 20260505051600 | 63 | 174 | 3.0 | 9.0 | 0.00 | 0.00 | 0.00 | 32 | 1006.6 |
| 20260505041601 | 65 | 202 | 2.0 | 7.0 | 0.00 | 0.00 | 0.00 | 29 | 1005.9 |
| 20260505040005 | 66 | 229 | 2.0 | 6.0 | 0.00 | 0.00 | 0.00 | 28 | 1005.8 |
| 20260505034559 | 67 | 161 | 1.0 | 7.0 | 0.00 | 0.00 | 0.00 | 27 | 1005.5 |
| 20260505033100 | 67 | 193 | 6.0 | 10.0 | 0.00 | 0.00 | 0.00 | 27 | 1004.9 |
| 20260505031600 | 68 | 202 | 4.0 | 15.0 | 0.00 | 0.00 | 0.00 | 26 | 1004.3 |
| 20260505030104 | 68 | 225 | 7.0 | 11.0 | 0.00 | 0.00 | 0.00 | 25 | 1004.2 |
| 20260505024601 | 68 | 219 | 7.0 | 13.0 | 0.00 | 0.00 | 0.00 | 25 | 1004.1 |
| 20260505023108 | 69 | 236 | 6.0 | 14.0 | 0.00 | 0.00 | 0.00 | 23 | 1003.9 |
| 20260505021602 | 70 | 202 | 6.0 | 15.0 | 0.00 | 0.00 | 0.00 | 22 | 1003.8 |
| 20260505020105 | 70 | 194 | 7.0 | 16.0 | 0.00 | 0.00 | 0.00 | 21 | 1003.9 |
| 20260505014601 | 71 | 167 | 6.0 | 15.0 | 0.00 | 0.00 | 0.00 | 20 | 1003.9 |
| 20260505013101 | 72 | 222 | 5.0 | 14.0 | 0.00 | 0.00 | 0.00 | 19 | 1003.9 |
| 20260505011559 | 73 | 218 | 9.0 | 16.0 | 0.00 | 0.00 | 0.00 | 18 | 1003.9 |
| 20260505010104 | 74 | 213 | 7.0 | 20.0 | 0.00 | 0.00 | 0.00 | 18 | 1003.9 |
| 20260505004559 | 75 | 217 | 7.0 | 15.0 | 0.00 | 0.00 | 0.00 | 18 | 1003.9 |
| 20260505003105 | 74 | 225 | 8.0 | 18.0 | 0.00 | 0.00 | 0.00 | 18 | 1004.0 |
| 20260505001600 | 75 | 149 | 5.0 | 17.0 | 0.00 | 0.00 | 0.00 | 16 | 1003.9 |
| 20260505000112 | 74 | 209 | 6.0 | 15.0 | 0.00 | 0.00 | 0.00 | 16 | 1004.0 |
| 20260504234559 | 75 | 209 | 7.0 | 16.0 | 0.00 | 0.00 | 0.00 | 16 | 1004.0 |
| 20260504233105 | 76 | 249 | 7.0 | 14.0 | 0.00 | 0.00 | 0.00 | 13 | 1004.1 |
| 20260504231559 | 77 | 224 | 7.0 | 16.0 | 0.00 | 0.00 | 0.00 | 14 | 1004.0 |
| 20260504230058 | 78 | 217 | 4.0 | 14.0 | 0.00 | 0.00 | 0.00 | 13 | 1004.1 |
| 20260504230002 | 78 | 190 | 6.0 | 14.0 | 0.00 | 0.00 | 0.00 | 13 | 1004.1 |
| 20260504224601 | 78 | 140 | 5.0 | 14.0 | 0.00 | 0.00 | 0.00 | 12 | 1004.0 |
| 20260504223100 | 77 | 196 | 8.0 | 15.0 | 0.00 | 0.00 | 0.00 | 13 | 1004.2 |
| 20260504221559 | 77 | 177 | 7.0 | 19.0 | 0.00 | 0.00 | 0.00 | 13 | 1004.2 |
| 20260504220121 | 78 | 217 | 9.0 | 16.0 | 0.00 | 0.00 | 0.00 | 11 | 1004.4 |
| 20260504214600 | 78 | 215 | 5.0 | 11.0 | 0.00 | 0.00 | 0.00 | 11 | 1004.5 |
| 20260504213102 | 78 | 170 | 7.0 | 16.0 | 0.00 | 0.00 | 0.00 | 12 | 1004.9 |
| 20260504211559 | 78 | 178 | 5.0 | 17.0 | 0.00 | 0.00 | 0.00 | 13 | 1005.1 |
| 20260504210059 | 78 | 135 | 4.0 | 17.0 | 0.00 | 0.00 | 0.00 | 11 | 1004.9 |
| 20260504204559 | 76 | 166 | 8.0 | 23.0 | 0.00 | 0.00 | 0.00 | 13 | 1005.0 |
| 20260504203059 | 77 | 172 | 4.0 | 16.0 | 0.00 | 0.00 | 0.00 | 17 | 1005.0 |
| 20260504201559 | 77 | 240 | 6.0 | 19.0 | 0.00 | 0.00 | 0.00 | 16 | 1005.0 |
| 20260504200003 | 77 | 171 | 7.0 | 19.0 | 0.00 | 0.00 | 0.00 | 17 | 1005.0 |
| 20260504194558 | 76 | 216 | 10.0 | 18.0 | 0.00 | 0.00 | 0.00 | 14 | 1005.3 |
| 20260504193100 | 76 | 212 | 6.0 | 18.0 | 0.00 | 0.00 | 0.00 | 19 | 1005.3 |
| 20260504191559 | 75 | 167 | 8.0 | 16.0 | 0.00 | 0.00 | 0.00 | 19 | 1005.4 |
| 20260504190111 | 74 | 188 | 8.0 | 17.0 | 0.00 | 0.00 | 0.00 | 20 | 1005.5 |
| 20260504190001 | 74 | 222 | 8.0 | 17.0 | 0.00 | 0.00 | 0.00 | 21 | 1005.5 |
| 20260504184616 | 74 | 232 | 9.0 | 15.0 | 0.00 | 0.00 | 0.00 | 23 | 1005.7 |
| 20260504183109 | 72 | 167 | 5.0 | 14.0 | 0.00 | 0.00 | 0.00 | 26 | 1005.7 |
| 20260504181559 | 71 | 252 | 6.0 | 11.0 | 0.00 | 0.00 | 0.00 | 27 | 1005.9 |
| 20260504180059 | 69 | 264 | 5.0 | 11.0 | 0.00 | 0.00 | 0.00 | 28 | 1006.4 |
| 20260504174609 | 68 | 188 | 6.0 | 16.0 | 0.00 | 0.00 | 0.00 | 31 | 1006.3 |
| 20260504173104 | 68 | 225 | 6.0 | 15.0 | 0.00 | 0.00 | 0.00 | 32 | 1006.0 |
| 20260504171558 | 68 | 203 | 7.0 | 14.0 | 0.00 | 0.00 | 0.00 | 32 | 1005.7 |
| 20260504170108 | 68 | 226 | 5.0 | 15.0 | 0.00 | 0.00 | 0.00 | 33 | 1005.6 |